Location: Newark
(33.1119°N, 7.4058°W)
Time: 00:36:59
(UTC+00:00)

Hubble Space Telescope - Pass Details

Date: 22 November 2019
Orbit: 536 x 540 km, 28.5° (Epoch: 08 December)

Event Time Altitude Azimuth Distance (km) Brightness Sun altitude
Rises 19:07:38 0° 258° (WSW) 2,669 5.9 -21.4°
Reaches altitude 10° 19:09:58 10° 252° (WSW) 1,779 4.5 -21.9°
Maximum altitude 19:13:53 44° 180° (S) 748 1.5 -22.7°
Enters shadow 19:14:06 43° 170° (S) 753 1.4 -22.7°
